GW4674 Weather Reports


Display with metric or nautical units.
time (UTC)temp
F
wind
direction
speed
MPH
gust
MPH
rain 1hr
in
rain 24hr
in
rain mn
in
humidity
%
barometer
mb
20260503001850 51 182 2.0 2.0 0.00 0.02 0.02 57 1017.1
20260503001346 51 278 0.0 3.0 0.00 0.02 0.02 60 1016.9
20260503000844 51 209 2.0 2.0 0.00 0.02 0.02 57 1016.7
20260503000341 51 344 0.0 2.0 0.00 0.02 0.02 58 1016.9
20260502235838 51 14 2.0 2.0 0.00 0.02 0.02 55 1016.7
20260502235335 51 136 1.0 2.0 0.00 0.02 0.02 57 1016.7
20260502234832 52 187 2.0 2.0 0.00 0.02 0.02 55 1016.8
20260502234329 52 217 2.0 2.0 0.00 0.02 0.02 54 1016.8
20260502233826 52 245 0.0 3.0 0.00 0.02 0.02 52 1016.6
20260502233322 53 215 2.0 3.0 0.00 0.02 0.02 52 1016.5
20260502232819 53 191 1.0 3.0 0.00 0.02 0.02 55 1016.7
20260502232315 53 177 1.0 2.0 0.00 0.02 0.02 54 1016.6
20260502231812 54 186 0.0 3.0 0.00 0.02 0.02 53 1016.4
20260502231310 54 318 0.0 2.0 0.00 0.02 0.02 51 1016.7
20260502230808 55 40 1.0 2.0 0.00 0.02 0.02 53 1016.3
20260502230306 55 8 0.0 2.0 0.00 0.02 0.02 48 1016.4
20260502225802 56 236 2.0 2.0 0.00 0.02 0.02 45 1016.4
20260502225259 56 261 0.0 2.0 0.00 0.02 0.02 41 1016.4
20260502224755 56 314 2.0 3.0 0.00 0.02 0.02 40 1016.4
20260502224252 56 259 1.0 4.0 0.00 0.02 0.02 41 1016.5
20260502223749 57 272 0.0 4.0 0.00 0.02 0.02 42 1016.3
20260502223247 57 254 2.0 2.0 0.00 0.02 0.02 41 1016.4
20260502222745 57 232 2.0 3.0 0.00 0.02 0.02 41 1016.3
20260502222241 56 220 2.0 3.0 0.00 0.02 0.02 42 1016.4
20260502221737 56 290 1.0 4.0 0.00 0.02 0.02 43 1016.3
20260502221234 57 331 2.0 3.0 0.00 0.02 0.02 41 1016.0
20260502220730 58 200 2.0 3.0 0.00 0.02 0.02 39 1016.2
20260502220227 59 223 2.0 5.0 0.00 0.02 0.02 39 1016.2
20260502215724 61 238 0.0 4.0 0.00 0.02 0.02 40 1016.0
20260502215221 60 215 1.0 2.0 0.00 0.02 0.02 40 1016.2
20260502214718 61 305 1.0 2.0 0.00 0.02 0.02 39 1016.0
20260502214215 61 239 3.0 6.0 0.00 0.02 0.02 39 1016.1
20260502213712 60 247 2.0 4.0 0.00 0.02 0.02 39 1016.2
20260502213209 59 348 2.0 6.0 0.00 0.02 0.02 37 1016.1
20260502212708 58 254 1.0 4.0 0.00 0.02 0.02 41 1016.2
20260502212206 58 304 1.0 4.0 0.00 0.02 0.02 40 1016.1
20260502211702 60 49 2.0 4.0 0.00 0.02 0.02 39 1016.1
20260502211159 61 356 1.0 3.0 0.00 0.02 0.02 38 1016.0
20260502210656 59 297 1.0 4.0 0.00 0.02 0.02 39 1015.8
20260502210153 59 225 3.0 5.0 0.00 0.02 0.02 39 1015.9
20260502205650 59 31 1.0 4.0 0.00 0.02 0.02 43 1015.9
20260502205146 60 224 1.0 4.0 0.00 0.02 0.02 43 1015.8
20260502204643 57 160 1.0 4.0 0.00 0.02 0.02 43 1016.0
20260502204141 58 187 1.0 4.0 0.00 0.02 0.02 50 1016.1
20260502203638 58 229 3.0 4.0 0.00 0.02 0.02 47 1016.1
20260502203136 60 223 0.0 3.0 0.00 0.02 0.02 44 1016.2
20260502202630 61 295 2.0 4.0 0.00 0.02 0.02 45 1016.4
20260502202129 57 186 3.0 6.0 0.00 0.02 0.02 47 1016.2
20260502201625 57 311 0.0 3.0 0.00 0.02 0.02 47 1016.2
20260502201122 58 235 0.0 5.0 0.00 0.02 0.02 46 1016.5
20260502200617 59 239 2.0 4.0 0.00 0.02 0.02 45 1016.5
20260502200115 58 190 3.0 9.0 0.00 0.02 0.02 47 1016.4
20260502195613 59 21 1.0 4.0 0.00 0.02 0.02 44 1016.4
20260502195108 58 280 2.0 2.0 0.00 0.02 0.02 46 1016.5
20260502194606 55 121 2.0 3.0 0.00 0.02 0.02 47 1016.7
20260502194102 56 302 0.0 3.0 0.00 0.02 0.02 51 1016.8
20260502193559 57 229 4.0 8.0 0.00 0.02 0.02 47 1016.9
20260502193056 60 255 2.0 4.0 0.00 0.02 0.02 46 1017.2
20260502192551 60 204 2.0 5.0 0.00 0.02 0.02 46 1017.0
20260502192049 57 272 2.0 4.0 0.00 0.02 0.02 53 1017.1
20260502191540 55 346 3.0 6.0 0.00 0.02 0.02 53 1017.2
20260502191038 56 240 2.0 3.0 0.00 0.02 0.02 54 1017.2
20260502190535 57 234 3.0 5.0 0.00 0.02 0.02 56 1017.3
20260502190032 54 251 1.0 4.0 0.00 0.02 0.02 60 1017.3
20260502185527 55 317 0.0 3.0 0.00 0.02 0.02 56 1017.3
20260502185024 55 349 3.0 4.0 0.00 0.02 0.02 59 1017.5
20260502184519 56 249 3.0 3.0 0.00 0.02 0.02 57 1017.3
20260502184016 53 5 2.0 4.0 0.00 0.02 0.02 60 1017.5
20260502183512 55 32 2.0 4.0 0.00 0.02 0.02 59 1017.7
20260502183008 54 39 2.0 3.0 0.00 0.02 0.02 61 1017.5
20260502182503 55 268 1.0 4.0 0.00 0.02 0.02 62 1017.6
20260502181959 55 37 3.0 4.0 0.00 0.02 0.02 60 1017.9
20260502181457 56 256 1.0 5.0 0.00 0.02 0.02 63 1017.7
20260502180956 56 258 4.0 5.0 0.00 0.02 0.02 64 1017.7
20260502180453 54 188 3.0 5.0 0.00 0.02 0.02 65 1017.6
20260502170412 52 66 1.0 3.0 0.00 0.02 0.02 73 1018.0
20260502163855 51 211 4.0 4.0 0.00 0.02 0.02 75 1018.0
20260502163351 52 321 0.0 4.0 0.00 0.02 0.02 75 1017.7
20260502162849 53 272 2.0 6.0 0.00 0.02 0.02 73 1017.7
20260502162345 55 246 2.0 5.0 0.00 0.02 0.02 68 1017.7
20260502161843 54 247 2.0 5.0 0.00 0.02 0.02 69 1017.6
20260502161338 58 45 2.0 3.0 0.00 0.02 0.02 65 1017.8
20260502160837 59 253 2.0 5.0 0.00 0.02 0.02 61 1017.6
20260502160335 58 326 0.0 4.0 0.00 0.02 0.02 65 1017.7
20260502152305 54 286 1.0 2.0 0.00 0.02 0.02 71 1017.7
20260502151802 55 309 1.0 3.0 0.00 0.02 0.02 70 1017.8
20260502151259 55 208 4.0 4.0 0.00 0.02 0.02 68 1017.8
20260502150757 55 197 1.0 3.0 0.00 0.02 0.02 74 1017.7
20260502150253 53 205 0.0 2.0 0.00 0.02 0.02 75 1018.0
20260502130635 50 256 1.0 5.0 0.00 0.02 0.02 89 1018.2
20260502130133 50 272 1.0 2.0 0.00 0.02 0.02 90 1018.3
20260502123619 49 216 2.0 4.0 0.00 0.02 0.02 93 1018.0
20260502123115 48 113 0.0 2.0 0.00 0.02 0.02 92 1018.0
20260502122612 48 188 2.0 3.0 0.00 0.02 0.02 94 1018.1
20260502122109 47 217 2.0 3.0 0.00 0.02 0.02 95 1018.0
20260502121607 49 226 3.0 3.0 0.00 0.02 0.02 96 1018.2
20260502121104 48 195 2.0 2.0 0.00 0.02 0.02 96 1018.4
20260502120600 48 218 1.0 2.0 0.00 0.02 0.02 96 1018.2
20260502115556 48 205 2.0 3.0 0.00 0.02 0.02 95 1018.2
20260502115050 48 185 1.0 2.0 0.00 0.02 0.02 95 1018.3
20260502114547 47 214 3.0 4.0 0.00 0.02 0.02 95 1018.1
20260502114044 49 202 2.0 2.0 0.00 0.02 0.02 95 1017.9
20260502113542 48 186 1.0 3.0 0.00 0.02 0.02 95 1018.1
20260502113041 48 216 2.0 3.0 0.00 0.02 0.02 96 1018.1
20260502112538 47 177 1.0 2.0 0.00 0.02 0.02 96 1018.1
20260502112035 46 215 0.0 3.0 0.00 0.02 0.02 97 1018.0
20260502111532 46 170 1.0 2.0 0.00 0.02 0.02 97 1018.0
20260502111030 46 231 2.0 3.0 0.00 0.02 0.02 97 1017.9
20260502110527 46 178 2.0 3.0 0.00 0.02 0.02 97 1018.1
20260502110025 46 225 2.0 3.0 0.00 0.02 0.02 96 1018.1
20260502105522 46 219 2.0 3.0 0.02 0.02 0.02 96 1018.0
20260502105019 46 192 2.0 2.0 0.02 0.02 0.02 95 1017.8
20260502104517 46 133 1.0 3.0 0.00 0.02 0.02 94 1018.1
20260502104014 46 167 2.0 3.0 0.02 0.02 0.02 93 1017.9
20260502103511 47 131 2.0 3.0 0.05 0.02 0.02 92 1017.9
20260502103009 47 217 1.0 2.0 0.02 0.02 0.02 94 1017.9
20260502102505 47 181 1.0 2.0 0.00 0.01 0.01 94 1017.9
20260502102003 46 165 2.0 3.0 0.02 0.01 0.01 95 1018.2
20260502101500 46 230 2.0 4.0 0.05 0.01 0.01 96 1018.1
20260502100959 46 170 1.0 4.0 0.02 0.01 0.01 97 1017.8
20260502100457 46 221 2.0 2.0 0.00 0.00 0.00 97 1018.2
20260502091432 47 166 2.0 3.0 0.00 0.00 0.00 95 1017.7
20260502090929 46 177 2.0 3.0 0.00 0.00 0.00 95 1017.9
20260502090426 46 186 1.0 2.0 0.00 0.00 0.00 95 1017.8
20260502071314 47 147 1.0 3.0 0.00 0.00 0.00 91 1017.6
20260502070812 47 173 1.0 3.0 0.00 0.00 0.00 91 1017.5
20260502070309 47 173 1.0 1.0 0.00 0.00 0.00 90 1017.8
20260502065808 47 164 0.0 3.0 0.00 0.00 0.00 90 1017.9
20260502065306 47 173 3.0 3.0 0.00 0.00 0.00 90 1017.8
20260502064804 47 183 1.0 3.0 0.00 0.00 0.00 90 1017.7
20260502064256 46 177 3.0 4.0 0.00 0.00 0.00 90 1017.7
20260502063753 46 185 1.0 3.0 0.00 0.00 0.00 91 1017.8
20260502063251 46 217 2.0 2.0 0.00 0.00 0.00 90 1017.8
20260502062747 47 90 1.0 2.0 0.00 0.00 0.00 89 1017.9
20260502062245 47 148 2.0 2.0 0.00 0.00 0.00 88 1018.0
20260502061743 47 189 2.0 3.0 0.00 0.00 0.00 88 1017.9
20260502061241 47 178 2.0 2.0 0.00 0.00 0.00 87 1017.9
20260502060736 47 117 2.0 2.0 0.00 0.00 0.00 86 1017.8
20260502060232 47 164 2.0 3.0 0.00 0.00 0.00 86 1018.0
20260502055730 48 192 2.0 3.0 0.00 0.00 0.00 85 1018.0
20260502055227 48 196 1.0 3.0 0.00 0.00 0.00 84 1018.0
20260502054721 48 160 1.0 2.0 0.00 0.00 0.00 83 1017.9
20260502054218 49 195 2.0 2.0 0.00 0.00 0.00 83 1018.1
20260502053716 49 154 0.0 1.0 0.00 0.00 0.00 81 1017.8
20260502053213 49 180 1.0 3.0 0.00 0.00 0.00 82 1018.0
20260502052711 48 223 1.0 3.0 0.00 0.00 0.00 84 1017.9
20260502052209 48 173 2.0 4.0 0.00 0.00 0.00 84 1017.9
20260502051706 47 167 3.0 4.0 0.00 0.00 0.00 84 1017.8
20260502051205 47 200 2.0 2.0 0.00 0.00 0.00 84 1017.8
20260502050701 47 166 0.0 3.0 0.00 0.00 0.00 83 1018.1
20260502050157 47 171 0.0 2.0 0.00 0.00 0.00 83 1018.0
20260502045654 47 173 2.0 3.0 0.00 0.00 0.00 84 1018.2
20260502045151 47 214 2.0 2.0 0.00 0.00 0.00 84 1018.4
20260502044648 47 228 0.0 1.0 0.00 0.00 0.00 84 1018.2
20260502044144 47 217 0.0 1.0 0.00 0.00 0.00 84 1018.0
20260502043642 47 209 2.0 2.0 0.00 0.00 0.00 83 1018.3
20260502043139 47 201 2.0 3.0 0.00 0.00 0.00 84 1018.3
20260502042638 48 173 0.0 2.0 0.00 0.00 0.00 83 1018.2
20260502042135 48 147 0.0 2.0 0.00 0.00 0.00 81 1018.1
20260502041633 48 227 1.0 3.0 0.00 0.00 0.00 81 1018.0
20260502041130 48 177 2.0 3.0 0.00 0.00 0.00 80 1018.0
20260502040627 48 187 2.0 3.0 0.00 0.00 0.00 80 1018.2
20260502040124 48 142 2.0 4.0 0.00 0.00 0.00 80 1018.0
20260502035620 48 182 3.0 3.0 0.00 0.00 0.00 80 1017.9
20260502035117 48 220 2.0 3.0 0.00 0.00 0.00 79 1017.9
20260502034615 48 170 2.0 3.0 0.00 0.00 0.00 79 1017.9
20260502034113 48 148 2.0 4.0 0.00 0.00 0.00 78 1018.1
20260502033611 48 171 2.0 4.0 0.00 0.00 0.00 78 1017.9
20260502033109 49 170 3.0 3.0 0.00 0.00 0.00 77 1018.1
20260502032604 49 164 0.0 4.0 0.00 0.00 0.00 77 1018.1
20260502032100 49 148 0.0 4.0 0.00 0.00 0.00 76 1018.2
20260502031559 49 148 2.0 3.0 0.00 0.00 0.00 76 1018.4
20260502031056 49 151 2.0 4.0 0.00 0.00 0.00 76 1018.2
20260502030555 49 167 3.0 3.0 0.00 0.00 0.00 74 1018.3
20260502030052 50 175 2.0 4.0 0.00 0.00 0.00 74 1018.2
20260502025549 50 164 0.0 4.0 0.00 0.00 0.00 73 1018.4
20260502025048 50 161 2.0 3.0 0.00 0.00 0.00 73 1018.4
20260502024545 50 120 1.0 4.0 0.00 0.00 0.00 74 1018.4
20260502024043 50 165 3.0 4.0 0.00 0.00 0.00 73 1018.3
20260502023540 50 173 2.0 4.0 0.00 0.00 0.00 73 1018.3
20260502023038 50 152 3.0 4.0 0.00 0.00 0.00 72 1018.5
20260502022534 50 124 2.0 4.0 0.00 0.00 0.00 73 1018.4
20260502022032 50 168 2.0 4.0 0.00 0.00 0.00 73 1018.4
20260502021529 49 155 2.0 3.0 0.00 0.00 0.00 74 1018.3
20260502021026 50 141 2.0 4.0 0.00 0.00 0.00 75 1018.4
20260502020523 50 157 3.0 4.0 0.00 0.00 0.00 73 1018.4
20260502020020 50 158 3.0 4.0 0.00 0.00 0.00 72 1018.3
20260502015518 51 188 2.0 4.0 0.00 0.00 0.00 71 1018.5
20260502015014 51 149 2.0 2.0 0.00 0.00 0.00 70 1018.3
20260502014511 51 176 3.0 4.0 0.00 0.00 0.00 69 1018.2
20260502014008 51 150 2.0 3.0 0.00 0.00 0.00 69 1018.4
20260502013503 52 161 0.0 2.0 0.00 0.00 0.00 70 1018.5
20260502013000 52 93 1.0 2.0 0.00 0.00 0.00 67 1018.5
20260502012458 52 232 2.0 5.0 0.00 0.00 0.00 66 1018.3
20260502011955 52 179 1.0 2.0 0.00 0.00 0.00 68 1018.4
20260502011451 52 182 2.0 4.0 0.00 0.00 0.00 66 1018.3
20260502010948 52 220 2.0 4.0 0.00 0.00 0.00 67 1018.3
20260502010445 52 175 3.0 4.0 0.00 0.00 0.00 66 1018.3
20260502005941 52 185 4.0 4.0 0.00 0.00 0.00 66 1018.2
20260502005439 52 188 2.0 3.0 0.00 0.00 0.00 68 1018.2
20260502004937 53 209 3.0 5.0 0.00 0.00 0.00 66 1018.3
20260502004437 53 199 2.0 3.0 0.00 0.00 0.00 67 1018.2
20260502003935 53 209 0.0 2.0 0.00 0.00 0.00 65 1018.2
20260502003432 53 213 3.0 4.0 0.00 0.00 0.00 63 1018.2
20260502002928 53 238 3.0 5.0 0.00 0.00 0.00 63 1018.2
20260502002426 53 188 3.0 4.0 0.00 0.00 0.00 63 1018.0